[[{"header":{"parameterUnit":"m.s-1","parameterCategory":1,"la1":30.2991,"la2":30.254,"lo1":-89.0895,"lo2":-89.0444,"dy":0.0017,"dx":0.0017,"nx":28,"ny":28,"refTime":"2025-01-13T09:00:00:Z","depth":0,"parameterNumber":2,"parameterNumberName":"U-component_of_WINDS"},"data":[0,0,0,0,0,0,0,0,0,0,0,0,0,0,0,0,0,0,0,0,0,0,0,0,0,0,0,0,0,0,0,0,0,0,0,0,0,0,0,0,0,0,0,0,0,0,0,0,0,0,0,0,0,0,0,0,0,0,-1.6057,-1.6057,0,-1.604,-1.604,-1.604,-1.5991,-1.599,-1.5989,-1.5988,-1.5973,-1.5974,-1.5974,0,0,0,0,0,0,0,0,0,0,0,0,0,-1.6048,-1.6049,-1.6057,-1.6057,-1.6056,-1.604,-1.604,-1.604,-1.5991,-1.599,-1.5988,-1.5987,-1.5973,-1.5974,-1.5974,0,0,0,0,0,0,0,0,0,0,0,0,0,-1.6044,-1.6049,-1.6057,-1.603,-1.6027,-1.604,-1.604,-1.604,-1.5991,-1.599,-1.5988,-1.5986,-1.5973,-1.5974,-1.5975,-1.6013,0,0,-1.5977,-1.5978,0,0,0,0,0,0,0,0,-1.6044,-1.6044,-1.6034,-1.6032,-1.6029,-1.6016,-1.6032,-1.6031,-1.5992,-1.6005,-1.5988,-1.5986,-1.5989,-1.5988,-1.5989,-1.6012,-1.6011,-1.5977,-1.5978,-1.5978,-1.5979,0,0,0,0,0,0,0,-1.6045,-1.6045,-1.605,-1.6034,-1.6031,-1.6019,-1.6017,-1.6031,-1.6006,-1.6004,-1.6,-1.5999,-1.5987,-1.5988,-1.5988,-1.6011,-1.5977,-1.5978,-1.5979,-1.5979,-1.6065,-1.6067,0,0,0,0,0,0,-1.6048,-1.6045,-1.6051,-1.605,-1.6033,-1.6021,-1.6018,-1.6022,-1.6006,-1.6002,-1.6,-1.5996,-1.5987,-1.5987,-1.5987,-1.6031,-1.5978,-1.5979,-1.598,-1.6063,-1.6065,-1.6067,0,0,0,0,0,0,-1.6048,-1.6049,-1.6051,-1.6046,-1.6046,-1.6023,-1.6027,-1.6022,-1.6023,-1.6003,-1.5999,-1.6006,-1.5986,-1.5986,-1.6007,-1.603,-1.598,-1.5981,-1.6061,-1.6064,-1.6066,-1.6119,0,0,0,0,0,0,-1.6048,-1.605,-1.6063,-1.6047,-1.6046,-1.6071,-1.6029,-1.6023,-1.6025,-1.602,-1.6007,-1.6004,-1.5985,-1.6005,-1.6008,-1.603,-1.5981,-1.6059,-1.6062,-1.6065,-1.6115,-1.6123,-1.613,0,0,0,0,0,-1.6048,-1.608,-1.6064,-1.6065,-1.6063,-1.6072,-1.6072,-1.6049,-1.6027,-1.6041,-1.6028,-1.6004,-1.6027,-1.6008,-1.601,-1.6033,-1.6057,-1.6061,-1.6065,-1.6112,-1.6122,-1.613,0,0,0,0,0,0,-1.61,-1.6077,-1.606,-1.6087,-1.6082,-1.6064,-1.6081,-1.606,-1.6061,-1.6057,-1.6029,-1.6026,-1.6051,-1.6044,-1.6023,-1.607,-1.6038,-1.6043,-1.6073,-1.6082,-1.609,-1.6091,-1.5982,0,0,0,0,0,-1.6115,-1.6123,-1.6103,-1.6128,-1.6127,-1.6104,-1.6107,-1.609,-1.6084,-1.6081,-1.607,-1.6066,-1.6072,-1.6077,-1.6081,-1.6114,-1.6111,-1.6131,-1.6138,-1.6144,-1.6149,-1.6166,-1.6175,-1.608,-1.608,-1.608,0,0,-1.6145,-1.6133,-1.6141,-1.6139,-1.6132,-1.6142,-1.6103,-1.6115,-1.6122,-1.6084,-1.6102,-1.6094,-1.6087,-1.6113,-1.6125,-1.6109,-1.6174,-1.6149,-1.6154,-1.6155,-1.6171,-1.618,-1.6188,-1.6082,-1.6082,-1.6082,0,0,-1.6206,-1.6197,-1.6218,-1.6212,-1.6203,-1.6188,-1.6193,-1.6178,-1.6171,-1.6188,-1.6159,-1.6168,-1.6179,-1.6175,-1.6175,-1.6234,-1.6212,-1.6236,-1.6275,-1.6292,-1.6299,-1.6306,-1.6327,-1.6335,-1.624,-1.624,-1.624,0,-1.6245,-1.6258,-1.6231,-1.6245,-1.6245,-1.621,-1.6231,-1.6227,-1.622,-1.6221,-1.6203,-1.6216,-1.6209,-1.6234,-1.6249,-1.6249,-1.6255,-1.6237,-1.63,-1.6306,-1.6312,-1.6332,-1.634,-1.6243,-1.6243,-1.6243,-1.6242,0,-1.6307,-1.6316,-1.6334,-1.6327,-1.6329,-1.6347,-1.6324,-1.6329,-1.6311,-1.6298,-1.6317,-1.6307,-1.6309,-1.6314,-1.6297,-1.6337,-1.6327,-1.6305,-1.6273,-1.6325,-1.6343,-1.635,-1.6248,-1.6247,-1.6246,-1.6245,0,0,-1.64,-1.6378,-1.6385,-1.6382,-1.6369,-1.6376,-1.6392,-1.6393,-1.6398,-1.6395,-1.6408,-1.6417,-1.6397,-1.6396,-1.6379,-1.6393,-1.6441,-1.6369,-1.6369,-1.6383,-1.6484,-1.6502,-1.6511,-1.6426,-1.6427,-1.6428,-1.6485,0,-1.6458,-1.6483,-1.6459,-1.649,-1.6498,-1.6464,-1.6478,-1.6472,-1.646,-1.6466,-1.6453,-1.6461,-1.6432,-1.6432,-1.6445,-1.6432,-1.6461,-1.6428,-1.6439,-1.6439,-1.6442,-1.652,-1.6539,-1.6593,-1.6492,-1.6493,-1.6494,0,-1.6528,-1.6527,-1.6558,-1.6542,-1.6545,-1.6558,-1.6557,-1.6563,-1.6555,-1.6546,-1.6545,-1.6523,-1.6538,-1.6507,-1.6527,-1.6506,-1.6508,-1.6503,-1.6504,-1.6505,-1.647,-1.6524,-1.6609,-1.6618,-1.6505,-1.6504,-1.6503,0,-1.6594,-1.66,-1.6619,-1.6617,-1.66,-1.661,-1.6603,-1.6593,-1.6596,-1.6595,-1.6596,-1.6597,-1.6598,-1.66,-1.6579,-1.6558,-1.6603,-1.6569,-1.6596,-1.6597,-1.6608,-1.6607,-1.6696,-1.6609,-1.6609,-1.6608,-1.6608,0,-1.6661,-1.6682,-1.6648,-1.666,-1.6682,-1.6655,-1.6677,-1.6667,-1.6659,-1.6669,-1.664,-1.665,-1.6621,-1.6629,-1.6613,-1.6632,-1.6633,-1.6626,-1.6622,-1.6629,-1.663,-1.6631,-1.6627,-1.6611,-1.661,-1.661,-1.6609,0,-1.6739,-1.6717,-1.6736,-1.6717,-1.6713,-1.673,-1.6715,-1.6725,-1.6711,-1.6724,-1.6725,-1.6703,-1.671,-1.6689,-1.6693,-1.6682,-1.6711,-1.6701,-1.6714,-1.6711,-1.6739,-1.6736,-1.6831,-1.6842,-1.6748,-1.6749,-1.675,0,-1.6783,-1.6798,-1.6781,-1.6784,-1.6779,-1.6786,-1.6787,-1.6761,-1.6764,-1.6756,-1.6768,-1.6772,-1.6774,-1.6787,-1.6772,-1.6775,-1.6764,-1.6797,-1.6764,-1.6771,-1.6765,-1.6765,-1.6766,-1.6804,-1.6805,-1.6806,-1.6807,0,-1.6865,-1.6853,-1.6856,-1.6855,-1.6858,-1.6856,-1.6852,-1.6858,-1.6829,-1.6834,-1.684,-1.6842,-1.6845,-1.685,-1.6849,-1.6843,-1.6821,-1.6817,-1.6824,-1.6832,-1.6839,-1.6836,-1.6733,-1.6815,-1.6815,-1.6814,-1.6814,-1.6813,-1.6927,-1.6939,-1.6928,-1.6932,-1.6926,-1.6924,-1.6932,-1.6919,-1.6923,-1.6923,-1.6908,-1.6917,-1.6909,-1.6906,-1.6902,-1.6909,-1.6894,-1.6903,-1.6906,-1.6909,-1.6913,-1.6837,-1.6909,-1.6909,-1.6908,-1.6908,-1.6908,0,-1.7007,-1.6999,-1.7003,-1.6998,-1.7001,-1.6979,-1.6973,-1.6978,-1.6986,-1.698,-1.6983,-1.699,-1.6994,-1.6979,-1.6981,-1.699,-1.698,-1.6992,-1.6991,-1.699,-1.6927,-1.6921,-1.7,-1.7,-1.7,-1.7,-1.7,-1.7,-1.705,-1.7068,-1.7055,-1.707,-1.7061,-1.7069,-1.7068,-1.7066,-1.7061,-1.707,-1.7073,-1.7062,-1.7053,-1.7054,-1.7057,-1.7053,-1.7055,-1.7071,-1.7063,-1.7004,-1.6995,-1.6986,-1.6981,-1.7071,-1.7071,-1.7126,-1.7126,-1.7127]},{"header":{"parameterUnit":"m.s-1","parameterCategory":1,"la1":30.2991,"la2":30.254,"lo1":-89.0895,"lo2":-89.0444,"dy":0.0017,"dx":0.0017,"nx":28,"ny":28,"refTime":"2025-01-13T09:00:00:Z","depth":0,"parameterNumber":3,"parameterNumberName":"V-component_of_WINDS"},"data":[0,0,0,0,0,0,0,0,0,0,0,0,0,0,0,0,0,0,0,0,0,0,0,0,0,0,0,0,0,0,0,0,0,0,0,0,0,0,0,0,0,0,0,0,0,0,0,0,0,0,0,0,0,0,0,0,0,0,-3.7177,-3.7177,0,-3.7194,-3.7195,-3.7195,-3.7159,-3.7157,-3.7156,-3.7155,-3.7171,-3.7173,-3.7174,0,0,0,0,0,0,0,0,0,0,0,0,0,-3.7109,-3.7111,-3.7177,-3.7177,-3.7177,-3.7194,-3.7195,-3.7195,-3.7159,-3.7157,-3.7156,-3.7155,-3.7171,-3.7172,-3.7174,0,0,0,0,0,0,0,0,0,0,0,0,0,-3.7134,-3.7111,-3.7177,-3.7161,-3.716,-3.7194,-3.7195,-3.7195,-3.7159,-3.7157,-3.7156,-3.7154,-3.717,-3.7172,-3.7174,-3.7224,0,0,-3.7181,-3.7182,0,0,0,0,0,0,0,0,-3.7132,-3.7136,-3.7163,-3.7162,-3.7161,-3.7173,-3.7177,-3.7204,-3.716,-3.7159,-3.7155,-3.7153,-3.7173,-3.7175,-3.7182,-3.7224,-3.7225,-3.7182,-3.7183,-3.7184,-3.7185,0,0,0,0,0,0,0,-3.7131,-3.7135,-3.7184,-3.7164,-3.7162,-3.7153,-3.7154,-3.7182,-3.7176,-3.7159,-3.7157,-3.7159,-3.7172,-3.718,-3.7182,-3.7225,-3.7182,-3.7184,-3.7185,-3.7186,-3.7309,-3.7311,0,0,0,0,0,0,-3.7131,-3.7134,-3.7183,-3.7184,-3.7142,-3.7155,-3.7157,-3.7171,-3.7175,-3.7174,-3.7161,-3.7158,-3.7177,-3.7179,-3.7182,-3.7241,-3.7184,-3.7186,-3.7187,-3.7307,-3.731,-3.7312,0,0,0,0,0,0,-3.713,-3.7136,-3.7182,-3.7158,-3.7164,-3.7158,-3.7174,-3.7172,-3.718,-3.7177,-3.7175,-3.717,-3.7175,-3.7179,-3.7214,-3.7241,-3.7187,-3.7189,-3.7305,-3.7308,-3.7311,-3.7358,0,0,0,0,0,0,-3.7128,-3.7136,-3.7155,-3.7159,-3.7165,-3.7214,-3.7176,-3.7173,-3.7184,-3.718,-3.7185,-3.7184,-3.7174,-3.7211,-3.7216,-3.7243,-3.7191,-3.7303,-3.7306,-3.731,-3.7354,-3.7362,-3.7369,0,0,0,0,0,-3.7126,-3.7167,-3.7156,-3.7162,-3.7189,-3.7216,-3.7219,-3.7208,-3.7186,-3.7205,-3.7203,-3.7184,-3.7237,-3.7215,-3.722,-3.7248,-3.7301,-3.7305,-3.731,-3.7351,-3.736,-3.7369,0,0,0,0,0,0,-3.7165,-3.7167,-3.7155,-3.7199,-3.7208,-3.721,-3.7234,-3.7219,-3.7233,-3.7229,-3.7213,-3.7214,-3.7252,-3.7253,-3.7229,-3.7296,-3.7265,-3.7271,-3.7294,-3.7304,-3.7311,-3.731,-3.7193,0,0,0,0,0,-3.7179,-3.7202,-3.7202,-3.724,-3.7245,-3.7239,-3.725,-3.7241,-3.7249,-3.7252,-3.7252,-3.726,-3.7279,-3.7291,-3.7308,-3.7354,-3.7354,-3.7376,-3.7383,-3.7389,-3.7395,-3.7419,-3.7429,-3.7326,-3.7326,-3.7326,0,0,-3.7208,-3.7212,-3.7227,-3.7248,-3.7254,-3.7277,-3.7242,-3.7268,-3.7285,-3.7255,-3.7289,-3.7289,-3.7297,-3.7338,-3.7356,-3.734,-3.7423,-3.7395,-3.74,-3.7402,-3.7425,-3.7435,-3.7443,-3.7329,-3.7328,-3.7328,0,0,-3.7272,-3.7278,-3.7311,-3.7317,-3.7326,-3.7322,-3.733,-3.7334,-3.7334,-3.7367,-3.7346,-3.7365,-3.7397,-3.7403,-3.7411,-3.7478,-3.746,-3.7483,-3.7523,-3.7547,-3.7555,-3.7562,-3.7587,-3.7596,-3.7488,-3.7489,-3.7489,0,-3.7307,-3.7342,-3.7329,-3.7357,-3.7367,-3.7342,-3.7375,-3.7382,-3.7396,-3.7403,-3.7385,-3.7425,-3.7428,-3.7471,-3.7487,-3.7494,-3.7502,-3.7483,-3.7555,-3.7562,-3.7569,-3.7592,-3.7601,-3.7491,-3.7491,-3.7491,-3.749,0,-3.7384,-3.7408,-3.7433,-3.7449,-3.7461,-3.7491,-3.7483,-3.7497,-3.7486,-3.7484,-3.7518,-3.7521,-3.7538,-3.7547,-3.7536,-3.7588,-3.7578,-3.7558,-3.7526,-3.7582,-3.7603,-3.7612,-3.7495,-3.7494,-3.7493,-3.7493,0,0,-3.7474,-3.7482,-3.7492,-3.7498,-3.7507,-3.7525,-3.7553,-3.7571,-3.7584,-3.7594,-3.7618,-3.7645,-3.7627,-3.7636,-3.7625,-3.7647,-3.77,-3.7624,-3.7624,-3.7639,-3.7757,-3.7773,-3.7783,-3.7688,-3.769,-3.7691,-3.7757,0,-3.7538,-3.7589,-3.7579,-3.7628,-3.765,-3.7627,-3.7652,-3.7659,-3.7657,-3.7675,-3.7672,-3.7693,-3.7667,-3.7672,-3.7692,-3.769,-3.7724,-3.7684,-3.771,-3.7711,-3.771,-3.7794,-3.7811,-3.7873,-3.7765,-3.7766,-3.7767,0,-3.762,-3.7635,-3.7687,-3.7692,-3.7701,-3.7724,-3.7739,-3.7757,-3.7764,-3.7761,-3.7771,-3.7757,-3.7785,-3.7753,-3.7791,-3.7764,-3.7774,-3.7774,-3.7776,-3.7779,-3.7743,-3.78,-3.7892,-3.7902,-3.778,-3.7779,-3.7778,0,-3.7682,-3.7714,-3.775,-3.7756,-3.7763,-3.7779,-3.7783,-3.7789,-3.78,-3.7813,-3.782,-3.7836,-3.7845,-3.7857,-3.7847,-3.7824,-3.7887,-3.7854,-3.7885,-3.7885,-3.79,-3.7899,-3.7996,-3.7905,-3.7905,-3.7905,-3.7904,0,-3.7755,-3.7788,-3.7778,-3.7799,-3.7835,-3.7823,-3.7858,-3.7859,-3.7864,-3.7885,-3.7865,-3.7885,-3.7871,-3.7889,-3.7882,-3.7915,-3.7918,-3.7917,-3.7914,-3.7919,-3.7919,-3.7926,-3.7921,-3.7907,-3.7907,-3.7906,-3.7906,0,-3.7831,-3.7825,-3.7862,-3.7865,-3.7867,-3.7893,-3.7896,-3.7916,-3.7912,-3.7939,-3.7945,-3.7939,-3.796,-3.7951,-3.7972,-3.7967,-3.801,-3.8001,-3.8008,-3.8006,-3.8038,-3.8035,-3.8142,-3.8156,-3.8056,-3.8057,-3.8058,0,-3.7878,-3.7903,-3.791,-3.7923,-3.7928,-3.7949,-3.7961,-3.7949,-3.7962,-3.7973,-3.7991,-3.8011,-3.8026,-3.806,-3.8057,-3.8074,-3.8066,-3.8102,-3.8068,-3.8072,-3.8067,-3.8066,-3.8069,-3.8109,-3.811,-3.8111,-3.8112,0,-3.7964,-3.796,-3.7978,-3.7996,-3.801,-3.8023,-3.8034,-3.8046,-3.8034,-3.8049,-3.8071,-3.8083,-3.8105,-3.8125,-3.8139,-3.8142,-3.8125,-3.8123,-3.8131,-3.8136,-3.814,-3.8139,-3.8027,-3.8121,-3.812,-3.8119,-3.8119,-3.8118,-3.8027,-3.8049,-3.8057,-3.8078,-3.8085,-3.8096,-3.8115,-3.8114,-3.8132,-3.815,-3.8141,-3.8167,-3.8173,-3.8192,-3.8196,-3.8215,-3.8201,-3.8213,-3.8216,-3.8219,-3.8224,-3.8136,-3.8218,-3.8218,-3.8217,-3.8217,-3.8217,0,-3.8113,-3.8117,-3.8136,-3.8153,-3.8169,-3.8153,-3.8164,-3.8178,-3.8201,-3.8209,-3.8225,-3.8249,-3.8268,-3.8267,-3.8284,-3.83,-3.8292,-3.8304,-3.8304,-3.8305,-3.8235,-3.8227,-3.831,-3.831,-3.831,-3.831,-3.831,-3.831,-3.8159,-3.8195,-3.8191,-3.823,-3.8233,-3.8259,-3.8267,-3.8276,-3.8283,-3.8312,-3.8328,-3.8327,-3.8331,-3.8348,-3.8365,-3.8364,-3.8371,-3.8387,-3.8383,-3.8319,-3.8309,-3.8301,-3.8293,-3.8388,-3.8388,-3.845,-3.8451,-3.8452]}]]